Flag for U.S.A. Weather past 2 weeks in Ann Arbor, Michigan, U.S.A.

Now
50 °F

Passing clouds.


Feels Like: 48 °F
Forecast: 47 / 66 °F
Wind: 5 mph from Northeast

Location: Ann Arbor Municipal Airport

Current Time: Sep 18, 2014 at 8:35:25 AM

Latest Report: Sep 18, 2014 at 8:02 AM


Visibility: 8 mi

Pressure: 30.10 "Hg

Humidity: 86%

Dew point: 46 °F

Location of Ann ArborLocation

Historic Weather in Ann Arbor — Graph

°F

Ann Arbor temperature yesterday

Maximum temperature yesterday: 67 °F (at 2:53 PM)
Minimum temperature yesterday: 32 °F (at 7:00 AM)
Average temperature yesterday: 50 °F

Past Weeks' High & Low Weather Summary

 TemperatureHumidityPressure
High92 °F (Sep 5, 2:53 PM)97% (Sep 3, 6:03 AM)30.35 "Hg (Sep 3, 6:03 AM)
Low32 °F (Sep 17, 7:00 AM)39% (Sep 17, 4:53 PM)29.58 "Hg (Sep 10, 10:53 PM)
Average60 °F75%30.07 "Hg
* Reported Sep 3 6:01 AM — Sep 18 6:53 AM, Ann Arbor, Weather by CustomWeather, © 2014

Note: Actual official high and low records may vary slightly from our data, if they occured in-between our weather recording intervals... More about our weather records

Advertising

Ann Arbor weather history for previous 24 hours

 ConditionsComfort  
Time TempWeatherWind HumidityBarometerVisibility
6:53 AM
Sep 18
48 °FClear.5 mph83%30.08 "Hg10 mi
5:53 AM50 °FClear.3 mph80%30.06 "Hg10 mi
4:53 AM40 °FClear.No wind93%30.05 "Hg8 mi
4:02 AM40 °FFog.No wind89%30.04 "Hg2 mi
2:53 AM41 °FClear.No wind89%30.04 "Hg8 mi
1:53 AM43 °FClear.No wind89%30.03 "Hg8 mi
1:00 AM43 °FFog.No wind93%30.03 "Hg3 mi
11:55 PM
Sep 17
44 °FFog.No wind93%30.02 "Hg3 mi
10:53 PM44 °FClear.3 mph96%30.01 "Hg10 mi
9:53 PM45 °FClear.No wind90%30.00 "Hg10 mi
8:53 PM48 °FClear.No wind86%29.99 "Hg10 mi
7:53 PM57 °FSunny.No wind64%29.99 "Hg10 mi
6:53 PM65 °FOvercast.7 mph42%29.98 "Hg10 mi
5:53 PM67 °FPartly sunny.N/A39%29.98 "Hg10 mi
4:53 PM67 °FPassing clouds.10 mph39%29.99 "Hg10 mi
3:53 PM67 °FSunny.No wind41%29.99 "Hg10 mi
2:53 PM67 °FPartly sunny.7 mph45%30.00 "Hg10 mi
1:53 PM65 °FSunny.7 mph45%30.01 "Hg10 mi
12:53 PM63 °FSunny.No wind48%30.02 "Hg10 mi
11:53 AM61 °FSunny.3 mph52%30.03 "Hg10 mi
10:53 AM58 °FSunny.3 mph56%30.04 "Hg10 mi
9:53 AM54 °FSunny.6 mph67%30.07 "Hg10 mi
8:53 AM45 °FSunny.No wind93%30.08 "Hg9 mi
8:02 AM33 °FClear.3 mph92%30.07 "Hg9 mi
Weather by CustomWeather, © 2014

See weather overviewHow to use our weather pages